NIMBUS 2 DEB

Satellite information

Favourite Embed

Satellite Type and Status

DEBRISIN ORBIT

Key statistics

Satellite NIMBUS 2 DEB at a glance.

Uptime

21708

Days in orbit

Revolutions

≈ 13.6

Per day

Orbit

SSO

Sun Synchronous Orbit

Inclination

100.5

Latest

Satellite identification and parameters

Extended collection of information and parameters for NIMBUS 2 DEB.

Object identification

Identified? True

Debris? True

Object name: NIMBUS 2 DEB

International designator: 1966-040Z

Object number (NORAD): 28610

Object ID (CCSDS): 28610

Country: UNITED STATES OF AMERICA (US)

Current information (Y/N): Y

RCS size: SMALL

Orbital parameters

Period: 105.825 minutes

Inclination: 100.5044 deg

SMA: 7411.164 km

Apoapsis: 1087.963 km

Periapsis: 978.094 km

RAAN: 350.8248 deg

Eccentricy: 0.0074124

Argument of periapsis: 39.8676 deg

Mean anomaly: 143.4585 deg

Mean motion: 13.60733771 rev/day

Mean motion (dot): 0.00002238 rev/day2

B* drag term: 0.0029751 1/REarth

Two-line elements (TLE)

Creation date: Oct. 8, 2025, 7:06 a.m.

Reference frame: TEME

Reference center: EARTH

Epoch: Oct. 7, 2025, 10:50 p.m. UTC

TLE line 0: 0 NIMBUS 2 DEB

TLE line 1: 1 28610U 66040Z 25280.95143567 .00002238 00000-0 29751-2 0 9991

TLE line 2: 2 28610 100.5044 350.8248 0074124 39.8676 143.4585 13.60733771592453

Live tracking on map

Real-time ground track for satellite NIMBUS 2 DEB.

In-orbit conjunctions

A list of the most updated potential collisions computed for object NIMBUS 2 DEB.

Target Orbit TCA Probability of collision Miss distance Type
CZ-4C DEB SSO 2024-09-26 12:39:50 0.0002541735 827.0 (m) DEBRIS

Associated space launch

Nimbus 2, the second in a series of second-generation meteorological research-and-development satellites, added an additional medium-resolution infrared radiometer (MRIR) compared to Nimbus 1.

NIMBUS 2 DEB was lifted into orbit during the mission ‘Thor SLV-2A Agena B | Nimbus 2’, on board a Thor SLV-2A Agena B space rocket.

The launch took place on May 15, 1966, 7:55 a.m. from Space Launch Complex 2E.

For more information about the launch, click the button.

Launch to space Thor SLV-2A Agena B | Nimbus 2
Thor SLV-2A Agena B | Nimbus 2

Agency: N/A

Status: Launch Successful

Launch date: May 15, 1966, 7:55 a.m. UTC

Rocket: Thor SLV-2A Agena B

Launch pad: Space Launch Complex 2E

Location: Vandenberg SFB, CA, USA

...

Latest news about this satellite

There are no fresh news available about this satellite. Check back as we update our databases every day.


Newsletter sign-up

Weekly statistics, charts and insights to help you stay on top of the space industry.